Temperature
20 20 20 20 20 20 20 20 20 20 20 20 20 20 20 20 19 19 19 19 19 19 19 19 19 19 19 19 19 19 19 19 19 19 19 19 19 19 18 18 18 18 18
20 20 20 20 20 20 20 20 20 20 20 19 19 19 19 19 19 19 19 19 19 19 19 19 19 19 19 19 19 19 19 19 19 19 19 19 19 18 18 18 18 18 18
21 20 20 20 20 20 20 20 20 20 19 19 19 19 19 19 19 19 19 19 19 19 19 19 19 19 19 19 19 19 19 19 19 19 19 18 18 18 18 18 18 18 18
21 20 20 20 20 20 20 20 20 20 19 19 19 19 19 19 19 19 19 19 19 19 19 19 19 19 19 19 19 19 19 19 19 18 18 18 18 18 18 18 18 18 18
20 20 20 20 20 20 20 20 20 19 19 19 19 19 19 19 19 19 19 19 19 19 19 19 19 19 19 19 19 19 19 19 18 18 18 18 18 18 18 18 18 18 18
21 20 21 20 20 20 20 20 19 19 19 19 19 19 19 19 19 19 19 19 19 19 19 19 19 19 19 19 19 19 19 19 18 18 18 18 18 18 18 18 18 18 18
21 20 21 20 20 20 20 19 19 19 19 19 19 19 19 19 19 19 19 19 19 19 19 19 19 19 19 19 19 19 19 19 18 18 18 18 18 19 18 18 18 18 18
21 21 21 20 20 20 20 20 19 19 19 19 19 19 19 19 19 19 19 19 19 19 19 19 19 19 19 19 19 19 19 19 18 18 18 19 19 19 18 18 18 18 18
21 21 21 20 20 20 20 20 19 19 19 19 19 19 19 19 19 19 19 19 19 19 19 19 19 19 19 19 19 19 19 19 19 19 18 19 19 19 19 18 18 18 18
21 21 21 20 20 20 20 20 19 19 19 19 19 19 19 19 19 19 19 19 19 19 19 19 19 19 19 19 19 19 19 19 19 19 19 19 19 19 19 18 18 18 18
22 21 21 20 20 20 20 20 20 19 19 19 19 19 19 19 19 19 19 19 19 19 19 19 19 19 19 19 19 19 19 19 19 19 19 19 19 19 19 19 18 18 18
22 21 21 21 20 20 20 20 19 19 19 19 19 19 19 19 19 19 19 19 19 19 19 19 19 19 19 19 19 19 19 19 19 19 19 19 19 19 19 19 18 18 18
22 21 21 21 21 20 20 20 19 19 19 19 19 19 19 19 19 19 19 19 19 19 19 19 19 19 19 19 19 19 19 19 19 19 19 19 19 19 19 18 18 18 18
22 21 21 20 20 20 20 20 20 19 19 19 19 19 19 19 19 19 19 19 19 19 19 19 19 19 19 19 19 19 19 19 19 19 19 19 19 19 19 19 18 18 18
21 21 21 20 20 20 20 20 20 19 19 19 19 19 19 19 19 19 19 19 19 19 19 19 19 19 19 19 19 19 19 19 19 19 19 19 19 19 19 19 18 18 18
21 21 20 20 20 20 20 20 19 20 19 19 19 19 19 19 19 19 19 19 19 19 19 19 19 19 19 19 19 19 19 19 19 19 19 19 19 19 19 19 18 18 18
21 21 20 20 20 20 20 20 19 19 19 19 19 19 19 19 19 19 19 19 19 19 19 19 19 19 19 19 19 19 19 19 19 19 19 19 19 19 19 19 19 18 18
21 21 20 20 20 20 20 20 20 19 19 19 19 19 19 19 19 19 19 19 19 19 19 19 19 19 19 19 19 19 19 19 19 19 19 19 19 19 19 19 19 18 18
21 21 20 20 20 20 20 20 19 19 19 19 19 19 19 19 19 19 18 19 19 19 19 19 19 19 19 19 19 19 19 19 19 19 19 19 19 19 19 19 19 18 18
21 20 20 20 20 20 20 20 19 19 19 19 19 19 19 19 18 19 18 19 19 19 19 19 19 19 19 19 19 19 19 19 19 19 19 19 19 19 19 19 19 18 18
21 20 20 20 20 20 20 20 19 19 19 19 19 19 19 19 18 19 18 18 19 19 19 19 19 19 18 19 19 19 19 19 20 20 19 19 19 19 19 18 18 18 18
21 21 20 20 20 20 20 20 20 19 19 19 19 19 19 18 19 18 18 18 18 18 18 18 18 18 19 19 19 19 19 19 19 19 19 19 19 19 19 18 18 18 18
21 21 21 20 20 20 20 20 19 19 19 19 19 19 19 19 19 18 18 18 18 18 18 18 18 18 18 18 18 18 18 19 19 19 19 19 19 19 19 18 18 18 18
22 21 21 20 20 20 20 20 19 19 19 19 19 19 19 19 18 18 18 18 18 18 18 18 18 18 18 18 18 18 18 19 18 19 19 19 19 19 19 18 18 18 18
22 21 21 21 20 20 20 20 19 19 19 19 19 19 19 18 18 18 18 18 18 18 18 18 18 18 18 18 18 18 18 18 18 18 18 18 18 19 19 19 18 18 18
22 21 21 20 20 20 20 20 19 19 19 19 19 19 19 18 18 18 18 18 18 18 18 18 18 18 18 18 18 18 18 18 18 18 18 18 18 18 18 18 18 18 18
Wind_Speed
10 12 13 13 12 12 13 13 14 14 14 14 15 15 15 16 16 16 16 15 15 15 14 14 13 13 12 12 12 11 11 11 11 12 13 12 11 10 9 9 9 11 13
13 13 13 13 13 13 13 13 13 14 14 14 15 15 15 15 16 15 15 14 14 14 13 13 12 12 11 11 11 10 9 9 9 10 11 11 10 9 8 7 9 11 11
13 12 13 14 14 14 13 13 13 13 14 14 15 15 14 15 14 14 13 13 13 12 12 12 11 11 10 10 9 9 8 7 8 9 9 9 10 9 9 10 11 11 10
14 13 15 16 14 14 13 13 13 13 13 14 14 14 14 14 13 13 12 12 12 11 11 11 11 10 9 8 8 7 7 6 6 6 6 7 9 10 10 10 9 9 9
14 15 16 16 15 14 13 13 13 13 13 13 13 13 13 12 12 12 11 11 11 10 10 9 9 8 7 7 7 6 6 6 5 5 4 7 10 12 11 10 9 8 8
15 16 15 15 14 14 13 13 13 13 13 13 12 12 12 11 11 11 10 10 10 9 9 8 8 7 6 6 5 5 5 6 5 5 5 9 11 12 11 10 8 8 8
15 15 15 15 14 14 13 13 13 12 12 12 12 11 11 11 10 10 10 9 9 8 8 7 6 5 5 5 5 5 5 6 6 4 4 9 12 13 11 9 9 8 7
15 15 15 14 14 13 12 12 12 12 11 11 11 10 10 9 9 9 10 9 8 8 7 6 6 5 5 5 5 6 6 6 4 3 5 9 13 14 12 10 9 8 7
14 14 13 13 13 13 13 12 12 12 11 11 10 9 9 9 9 9 9 9 8 8 7 7 7 7 6 6 7 7 7 7 6 5 5 8 14 14 11 10 9 8 8
12 12 12 13 12 12 12 12 12 12 11 10 10 9 9 9 9 9 9 8 8 8 8 8 8 8 7 8 9 9 9 9 7 5 6 10 16 14 11 10 9 9 8
11 10 9 9 10 11 11 12 12 12 10 10 8 8 8 8 8 9 9 10 9 9 9 9 9 9 9 10 11 12 10 8 5 4 7 13 16 14 12 10 9 9 8
10 10 8 8 8 8 8 10 9 9 10 9 7 7 7 5 6 7 9 11 10 10 10 10 10 10 11 10 11 13 9 9 6 4 8 15 15 13 12 11 10 10 9
9 9 8 7 6 6 5 6 4 5 7 8 7 5 5 4 4 5 6 7 8 10 8 9 9 8 8 7 6 8 8 6 3 5 10 15 14 13 12 11 11 10 10
9 9 8 7 6 5 4 3 4 4 4 4 6 5 3 1 1 1 2 3 5 5 5 4 5 6 5 5 5 5 5 4 3 5 11 15 14 14 13 12 11 11 11
9 8 8 7 6 4 3 1 3 3 3 5 5 4 3 2 2 1 1 2 2 2 3 2 2 3 3 4 5 5 4 4 5 5 7 15 15 14 14 13 12 12 11
9 8 8 7 6 4 2 1 1 2 3 4 5 5 3 2 2 1 1 2 2 1 2 2 2 2 3 2 4 3 3 4 5 6 8 11 15 15 14 14 13 13 12
9 8 7 8 7 4 3 1 1 2 3 2 3 4 3 2 2 1 2 2 1 2 2 2 2 2 2 3 3 3 3 3 5 6 7 9 10 14 15 14 14 13 12
9 8 5 6 7 5 3 1 0 1 2 2 3 3 3 2 2 1 2 2 1 2 2 2 2 1 1 1 2 3 3 3 5 6 7 7 8 9 13 15 14 13 13
9 8 6 4 5 4 3 1 1 0 1 1 2 3 2 2 2 2 2 1 2 2 2 2 1 1 2 2 3 3 3 3 3 4 4 5 6 7 8 12 15 14 14
9 8 7 5 4 4 3 2 1 1 0 0 1 2 2 2 2 2 1 2 3 2 1 1 1 2 2 2 4 3 2 3 3 3 4 4 5 6 6 7 10 11 13
10 8 7 6 5 3 2 2 2 2 1 1 1 3 2 2 2 2 2 2 3 2 2 2 2 2 3 2 2 3 3 3 2 2 3 3 4 4 5 6 7 7 8
11 9 7 6 5 4 3 3 2 2 2 2 1 3 2 2 1 1 1 2 2 2 2 2 1 1 2 1 1 1 2 1 1 2 2 3 3 2 3 5 6 7 7
11 10 8 7 5 4 3 2 1 1 1 1 1 2 1 2 1 2 1 2 1 2 2 2 2 2 2 2 2 1 1 1 2 2 2 2 2 2 2 4 5 6 7
11 10 8 7 5 4 3 2 2 2 2 1 1 1 1 1 1 1 0 1 1 1 0 2 2 2 2 2 2 2 2 1 1 1 2 1 2 3 3 3 3 5 6
11 11 9 8 6 5 4 4 3 2 2 1 1 1 1 2 1 1 0 0 1 1 1 1 1 1 2 2 2 2 2 2 3 2 2 2 2 3 3 3 3 3 5
10 9 9 8 7 6 5 4 3 3 2 1 1 1 2 2 2 1 1 0 1 1 1 1 2 2 2 2 3 2 2 2 2 2 3 3 3 3 4 3 4 4 5
Wind_Direction
106 110 111 110 106 106 107 108 107 109 108 109 109 109 109 109 110 111 111 112 115 118 119 117 115 115 113 109 106 105 105 105 107 107 105 104 103 103 106 111 108 104 108
112 113 114 113 111 108 108 110 110 112 113 112 113 113 112 113 113 113 114 115 116 117 119 118 118 117 117 116 114 114 115 118 119 124 121 115 113 110 109 104 96 106 112
110 111 114 116 113 111 110 111 111 113 115 115 116 115 114 115 115 116 118 118 118 118 120 121 121 118 120 122 124 128 131 135 140 144 144 133 129 121 112 105 105 112 113
110 111 111 115 112 111 111 112 112 114 115 115 116 117 117 118 118 120 123 122 122 121 122 122 122 122 125 128 132 140 147 153 162 176 181 156 139 130 124 118 117 120 121
107 109 113 115 114 112 112 112 115 115 115 115 116 120 122 122 123 124 126 127 128 128 127 127 129 132 137 142 145 154 166 175 192 215 197 131 119 134 133 130 127 129 130
109 110 117 117 116 114 113 116 119 120 120 122 122 125 128 129 129 130 130 131 132 132 133 135 138 144 152 158 166 177 189 205 223 224 164 131 130 141 140 140 140 140 139
111 114 121 121 122 120 118 117 121 123 125 126 127 128 129 134 137 138 138 136 135 137 140 143 148 155 166 176 191 208 223 234 233 231 147 133 139 145 147 149 153 154 149
111 114 121 124 125 125 124 123 122 125 128 127 129 133 134 136 141 145 147 147 147 148 153 158 164 175 189 199 210 227 243 248 234 201 161 138 143 150 154 158 163 166 166
113 118 126 130 129 129 128 127 127 129 132 132 136 139 144 147 149 154 156 158 161 164 170 174 179 190 203 213 222 234 247 251 255 225 173 146 151 154 159 165 171 177 180
112 117 128 134 132 135 134 134 137 137 138 141 146 151 157 163 164 166 168 172 177 183 187 190 194 202 211 223 230 237 247 257 235 215 156 154 157 159 165 172 176 184 190
110 113 118 124 130 137 139 143 149 149 150 151 158 167 171 177 175 178 181 176 186 194 200 204 208 212 217 227 231 235 244 245 233 192 149 154 161 164 171 177 180 189 196
115 116 117 119 122 131 133 140 157 157 156 163 166 175 186 187 181 174 168 180 192 200 208 215 221 223 223 223 225 226 234 228 220 178 155 160 163 168 177 183 188 195 202
120 113 118 117 113 119 120 141 150 148 153 163 160 174 182 187 178 167 171 183 198 204 210 210 217 226 227 224 219 213 221 227 192 158 158 165 170 175 183 189 195 201 208
125 118 114 105 101 102 109 124 146 146 150 153 157 178 173 178 186 145 163 182 193 199 200 208 214 228 236 236 234 227 222 204 171 149 162 173 177 182 187 193 200 207 210
122 118 112 107 102 97 89 113 143 147 153 151 151 169 185 179 177 186 224 201 216 204 190 208 223 227 231 229 234 227 212 193 187 173 167 182 186 190 192 196 202 210 214
129 124 119 117 110 106 113 130 115 134 130 141 149 162 188 160 142 190 255 238 233 206 211 205 219 226 225 237 244 241 220 195 183 174 177 187 194 197 199 202 206 212 216
132 127 131 135 128 134 150 158 129 139 146 162 149 152 176 180 167 206 239 235 213 216 216 219 227 218 215 231 244 250 240 214 187 181 187 191 196 201 204 207 210 215 217
132 132 134 137 132 140 134 112 99 147 135 138 143 142 184 197 194 236 243 251 241 230 210 216 237 223 227 246 256 250 248 220 201 189 194 193 192 197 202 208 210 214 217
131 133 138 137 136 143 139 153 217 208 121 156 144 139 180 192 208 244 263 280 269 253 222 240 198 217 243 247 255 242 245 247 217 207 189 192 191 188 190 201 207 212 217
136 135 144 145 134 146 150 174 202 199 145 150 134 143 169 211 233 263 261 248 257 250 249 267 260 241 241 240 265 273 261 254 229 215 200 194 190 192 191 194 193 207 217
144 144 150 150 147 153 155 186 189 190 206 209 189 144 155 229 238 258 288 252 254 243 230 234 241 251 254 244 277 289 277 239 220 209 195 197 201 200 195 185 189 195 200
154 153 156 156 160 173 174 190 194 194 210 203 159 131 167 223 236 257 257 262 260 241 229 244 228 264 274 245 259 278 291 305 290 251 198 197 190 190 191 200 196 194 205
162 164 167 163 167 178 183 189 196 178 206 172 153 148 178 199 215 312 338 300 286 240 204 216 214 237 253 263 241 250 253 251 286 248 242 195 167 194 219 211 201 190 203
167 166 159 160 164 172 183 187 192 188 192 195 179 152 164 163 207 245 313 283 276 286 243 234 202 226 228 249 260 251 245 261 262 270 274 240 224 222 229 240 221 203 205
169 166 163 161 166 170 183 194 201 210 211 206 171 168 178 177 213 238 214 199 236 265 275 288 306 239 239 252 265 268 260 261 258 254 264 268 264 241 234 228 216 214 213
163 162 161 163 170 174 183 188 200 216 234 261 234 206 207 199 191 204 197 214 241 265 274 290 287 259 251 266 270 273 273 266 267 273 274 260 256 250 239 230 214 217 215
Height
1500 1500 1500 1501 1502 1503 1504 1505 1506 1508 1509 1511 1512 1514 1516 1518 1520 1522 1524 1526 1528 1530 1531 1533 1535 1536 1538 1539 1541 1542 1543 1545 1546 1547 1548 1549 1550 1551 1552 1552 1553 1554 1554
1500 1500 1500 1501 1504 1505 1506 1507 1509 1510 1512 1514 1515 1517 1518 1520 1522 1524 1526 1528 1530 1531 1533 1535 1536 1538 1539 1541 1542 1543 1545 1546 1547 1548 1549 1550 1551 1552 1553 1554 1554 1555 1556
1501 1500 1498 1501 1505 1507 1508 1510 1511 1513 1514 1516 1518 1519 1521 1522 1524 1526 1528 1529 1531 1533 1535 1536 1538 1539 1541 1542 1543 1545 1546 1547 1548 1549 1550 1551 1552 1553 1554 1555 1555 1556 1556
1503 1502 1501 1504 1507 1509 1510 1512 1513 1515 1516 1518 1520 1521 1523 1525 1526 1528 1529 1531 1533 1534 1536 1538 1539 1541 1542 1543 1544 1546 1547 1548 1549 1550 1551 1552 1553 1554 1555 1556 1556 1557 1557
1506 1506 1506 1508 1510 1511 1513 1514 1515 1517 1519 1520 1522 1523 1525 1527 1528 1530 1531 1532 1534 1536 1537 1539 1540 1542 1543 1544 1546 1547 1548 1549 1550 1551 1552 1553 1554 1555 1556 1557 1557 1558 1558
1508 1509 1510 1511 1512 1513 1515 1516 1518 1519 1521 1522 1524 1525 1527 1528 1530 1531 1532 1534 1535 1537 1539 1540 1541 1543 1544 1545 1547 1548 1549 1550 1551 1552 1554 1554 1555 1555 1556 1557 1557 1558 1558
1510 1511 1512 1513 1514 1516 1517 1518 1519 1521 1522 1524 1525 1527 1529 1530 1531 1533 1534 1535 1536 1538 1540 1541 1542 1543 1545 1546 1547 1548 1549 1550 1551 1552 1553 1554 1555 1556 1556 1556 1557 1558 1559
1512 1513 1514 1515 1517 1518 1519 1520 1521 1523 1524 1526 1527 1528 1530 1531 1533 1534 1535 1536 1538 1539 1540 1542 1543 1544 1545 1546 1547 1548 1550 1550 1551 1552 1553 1554 1555 1556 1556 1556 1557 1558 1558
1514 1515 1516 1517 1518 1519 1520 1522 1523 1524 1526 1527 1528 1530 1531 1533 1534 1536 1537 1537 1538 1540 1541 1542 1543 1544 1545 1546 1547 1548 1549 1550 1551 1552 1553 1554 1555 1555 1556 1556 1557 1557 1558
1516 1517 1518 1519 1520 1521 1522 1523 1524 1525 1527 1528 1529 1531 1532 1534 1535 1536 1537 1538 1539 1540 1541 1542 1543 1544 1545 1546 1547 1548 1549 1550 1551 1552 1552 1553 1554 1555 1556 1556 1556 1557 1558
1518 1519 1520 1521 1522 1523 1523 1524 1525 1526 1528 1529 1530 1532 1533 1535 1536 1537 1538 1538 1539 1540 1541 1542 1543 1544 1544 1546 1546 1547 1549 1549 1550 1551 1552 1553 1553 1554 1555 1555 1556 1556 1557
1519 1521 1522 1523 1524 1525 1526 1526 1527 1528 1528 1529 1531 1532 1534 1535 1537 1538 1539 1539 1540 1540 1541 1542 1542 1543 1544 1545 1545 1547 1548 1548 1549 1550 1551 1552 1552 1553 1554 1554 1555 1555 1556
1520 1521 1523 1524 1525 1526 1527 1527 1528 1529 1529 1531 1532 1533 1535 1536 1537 1538 1538 1539 1539 1540 1540 1540 1541 1541 1542 1543 1544 1546 1547 1547 1549 1549 1550 1551 1552 1552 1553 1553 1554 1555 1555
1521 1522 1523 1524 1525 1526 1527 1528 1529 1530 1530 1532 1532 1533 1534 1535 1537 1538 1538 1538 1539 1539 1539 1539 1539 1540 1541 1542 1543 1545 1546 1547 1547 1548 1549 1550 1551 1551 1552 1552 1553 1553 1554
1521 1523 1524 1525 1526 1527 1527 1529 1530 1531 1532 1532 1533 1534 1535 1535 1536 1537 1537 1538 1538 1538 1538 1538 1538 1539 1539 1541 1542 1543 1545 1545 1546 1547 1548 1548 1549 1550 1550 1551 1551 1552 1552
1521 1523 1524 1525 1526 1527 1528 1529 1530 1531 1532 1533 1533 1534 1534 1535 1536 1536 1536 1537 1537 1537 1537 1537 1538 1538 1539 1540 1541 1542 1543 1544 1545 1546 1546 1547 1547 1548 1549 1549 1550 1550 1551
1521 1523 1524 1525 1526 1527 1528 1530 1531 1532 1532 1533 1533 1534 1534 1535 1535 1536 1536 1536 1537 1537 1537 1537 1537 1537 1538 1539 1540 1541 1542 1542 1543 1544 1544 1545 1546 1546 1547 1547 1548 1548 1549
1521 1523 1524 1526 1527 1527 1528 1530 1531 1532 1532 1533 1533 1534 1534 1534 1535 1535 1535 1535 1536 1536 1536 1536 1536 1537 1537 1538 1539 1539 1540 1541 1541 1542 1542 1543 1544 1544 1545 1545 1546 1546 1547
1520 1522 1523 1525 1526 1527 1528 1530 1531 1532 1532 1533 1533 1533 1534 1534 1534 1534 1534 1534 1534 1535 1535 1535 1535 1536 1536 1537 1537 1538 1538 1539 1539 1540 1540 1541 1542 1542 1543 1543 1544 1544 1544
1520 1521 1523 1524 1526 1527 1528 1529 1530 1531 1532 1533 1533 1533 1533 1533 1533 1533 1533 1533 1533 1533 1533 1534 1534 1535 1535 1536 1536 1537 1537 1537 1537 1538 1539 1539 1540 1540 1541 1541 1542 1542 1542
1519 1521 1522 1523 1525 1526 1527 1528 1529 1530 1531 1532 1532 1532 1532 1532 1532 1532 1531 1531 1531 1531 1532 1532 1533 1533 1534 1535 1535 1535 1535 1535 1535 1536 1537 1537 1538 1538 1539 1539 1539 1539 1539
1517 1519 1521 1522 1524 1525 1526 1527 1528 1529 1530 1531 1532 1531 1531 1531 1531 1531 1530 1529 1530 1530 1530 1531 1531 1532 1533 1534 1534 1534 1534 1535 1534 1534 1535 1535 1535 1536 1537 1537 1537 1537 1537
1516 1517 1519 1521 1522 1524 1525 1527 1528 1529 1529 1530 1530 1530 1530 1530 1530 1529 1529 1528 1528 1528 1528 1529 1530 1530 1531 1532 1533 1534 1533 1533 1532 1533 1533 1533 1533 1534 1534 1535 1535 1534 1534
1514 1516 1518 1519 1521 1522 1524 1525 1526 1527 1528 1529 1529 1529 1529 1529 1529 1528 1528 1527 1527 1527 1527 1528 1529 1529 1530 1530 1531 1531 1532 1531 1531 1531 1531 1531 1532 1532 1532 1532 1532 1532 1532
1512 1514 1515 1517 1519 1521 1522 1524 1525 1526 1527 1528 1528 1528 1528 1528 1528 1527 1527 1527 1526 1526 1526 1527 1527 1528 1528 1528 1529 1529 1529 1529 1529 1529 1529 1529 1529 1530 1529 1529 1529 1529 1529
1510 1513 1514 1515 1517 1519 1520 1522 1523 1524 1525 1526 1527 1527 1527 1527 1527 1526 1526 1526 1525 1525 1525 1525 1525 1526 1526 1526 1526 1527 1527 1527 1527 1527 1527 1526 1527 1527 1527 1526 1526 1526 1526